Time,TemperatureF,DewpointF,PressureIn,WindDirection,WindDirectionDegrees,WindSpeedMPH,WindSpeedGustMPH,Humidity,HourlyPrecipIn,Conditions,Clouds,dailyrainin,SoftwareType,DateUTC
2013-01-30 00:00:00,34.6,33.8,30.14,North,0,0.0,0.0,97,0.03,,---,0.03,VWS V14.01,2013-01-30 05:00:00,
2013-01-30 00:02:00,34.6,33.8,30.15,North,0,0.0,0.0,97,0.02,,---,0.00,VWS V14.01,2013-01-30 05:02:00,
2013-01-30 00:03:00,34.6,33.8,30.15,North,0,0.0,0.0,97,0.02,,---,0.00,VWS V14.01,2013-01-30 05:03:00,
2013-01-30 00:08:00,34.6,33.8,30.15,North,0,0.0,0.0,97,0.03,,---,0.01,VWS V14.01,2013-01-30 05:08:00,
2013-01-30 00:13:00,34.6,33.8,30.15,North,0,0.0,0.0,97,0.03,,---,0.01,VWS V14.01,2013-01-30 05:13:00,
2013-01-30 00:18:00,34.4,33.6,30.15,North,0,0.0,0.0,97,0.03,,---,0.01,VWS V14.01,2013-01-30 05:18:00,
2013-01-30 00:23:00,34.4,33.6,30.15,North,0,0.0,0.0,97,0.03,,---,0.01,VWS V14.01,2013-01-30 05:23:00,
2013-01-30 00:28:00,34.4,33.6,30.15,North,0,0.0,0.0,97,0.04,,---,0.02,VWS V14.01,2013-01-30 05:28:00,
2013-01-30 00:33:00,34.4,33.6,30.15,North,0,0.0,0.0,97,0.04,,---,0.02,VWS V14.01,2013-01-30 05:33:00,
2013-01-30 00:38:00,34.4,33.6,30.15,North,0,0.0,0.0,97,0.04,,---,0.02,VWS V14.01,2013-01-30 05:38:00,
2013-01-30 00:43:00,34.4,33.6,30.15,North,0,0.0,0.0,97,0.05,,---,0.03,VWS V14.01,2013-01-30 05:43:00,
2013-01-30 00:48:00,34.4,33.6,30.15,North,0,0.0,0.0,97,0.04,,---,0.03,VWS V14.01,2013-01-30 05:48:00,
2013-01-30 00:53:00,34.4,33.6,30.15,North,0,0.0,0.0,97,0.04,,---,0.03,VWS V14.01,2013-01-30 05:53:00,
2013-01-30 00:58:00,34.4,33.6,30.15,North,0,0.0,0.0,97,0.03,,---,0.03,VWS V14.01,2013-01-30 05:58:00,
2013-01-30 01:03:00,34.6,33.8,30.14,North,0,0.0,0.0,97,0.03,,---,0.03,VWS V14.01,2013-01-30 06:03:00,
2013-01-30 01:08:00,34.7,33.9,30.14,North,0,0.0,0.0,97,0.02,,---,0.03,VWS V14.01,2013-01-30 06:08:00,
2013-01-30 01:13:00,34.9,34.1,30.14,North,0,0.0,0.0,97,0.02,,---,0.03,VWS V14.01,2013-01-30 06:13:00,
2013-01-30 01:18:00,34.9,34.1,30.14,North,0,1.0,2.0,97,0.03,,---,0.04,VWS V14.01,2013-01-30 06:18:00,
2013-01-30 01:23:00,35.0,34.2,30.14,North,0,1.0,1.0,97,0.03,,---,0.04,VWS V14.01,2013-01-30 06:23:00,
2013-01-30 01:28:00,35.2,34.4,30.14,North,0,0.0,0.0,97,0.03,,---,0.04,VWS V14.01,2013-01-30 06:28:00,
2013-01-30 01:33:00,35.3,34.8,30.13,North,0,0.0,0.0,98,0.02,,---,0.04,VWS V14.01,2013-01-30 06:33:00,
2013-01-30 01:38:00,35.6,35.1,30.13,North,8,0.0,3.0,98,0.02,,---,0.04,VWS V14.01,2013-01-30 06:38:00,
2013-01-30 01:43:00,35.8,35.3,30.13,North,10,0.0,2.0,98,0.01,,---,0.04,VWS V14.01,2013-01-30 06:43:00,
2013-01-30 01:48:00,35.8,35.3,30.12,North,10,1.0,2.0,98,0.01,,---,0.04,VWS V14.01,2013-01-30 06:48:00,
2013-01-30 01:53:00,35.9,35.4,30.12,North,10,0.0,0.0,98,0.01,,---,0.04,VWS V14.01,2013-01-30 06:53:00,
2013-01-30 01:58:00,36.0,35.5,30.12,North,10,0.0,2.0,98,0.01,,---,0.04,VWS V14.01,2013-01-30 06:58:00,
2013-01-30 02:03:00,36.0,35.5,30.12,North,10,0.0,2.0,98,0.01,,---,0.04,VWS V14.01,2013-01-30 07:03:00,
2013-01-30 02:08:00,36.3,35.8,30.12,North,11,0.0,2.0,98,0.01,,---,0.04,VWS V14.01,2013-01-30 07:08:00,
2013-01-30 02:13:00,36.5,36.0,30.12,North,11,0.0,0.0,98,0.01,,---,0.04,VWS V14.01,2013-01-30 07:13:00,
2013-01-30 02:18:00,36.6,36.1,30.11,North,11,1.0,3.0,98,0.01,,---,0.04,VWS V14.01,2013-01-30 07:18:00,
2013-01-30 02:23:00,36.9,36.4,30.11,North,11,1.0,2.0,98,0.00,,---,0.04,VWS V14.01,2013-01-30 07:23:00,
2013-01-30 02:28:00,37.0,36.5,30.11,NNE,14,1.0,3.0,98,0.00,,---,0.04,VWS V14.01,2013-01-30 07:28:00,
2013-01-30 02:33:00,37.2,36.7,30.10,East,93,5.0,5.0,98,0.00,,---,0.04,VWS V14.01,2013-01-30 07:33:00,
2013-01-30 02:38:00,37.3,36.8,30.10,East,97,1.0,2.0,98,0.00,,---,0.04,VWS V14.01,2013-01-30 07:38:00,
2013-01-30 02:43:00,37.5,37.0,30.10,ESE,112,3.0,3.0,98,0.00,,---,0.04,VWS V14.01,2013-01-30 07:43:00,
2013-01-30 02:48:00,37.5,37.0,30.09,ESE,114,3.0,3.0,98,0.00,,---,0.04,VWS V14.01,2013-01-30 07:48:00,
2013-01-30 02:53:00,37.6,37.1,30.09,ESE,114,2.0,4.0,98,0.00,,---,0.04,VWS V14.01,2013-01-30 07:53:00,
2013-01-30 02:58:00,37.8,37.3,30.09,ESE,114,2.0,4.0,98,0.00,,---,0.04,VWS V14.01,2013-01-30 07:58:00,
2013-01-30 03:03:00,37.8,37.3,30.09,ESE,116,0.0,3.0,98,0.00,,---,0.04,VWS V14.01,2013-01-30 08:03:00,
2013-01-30 03:08:00,37.8,37.3,30.09,SE,130,1.0,5.0,98,0.00,,---,0.04,VWS V14.01,2013-01-30 08:08:00,
2013-01-30 03:13:00,37.9,37.4,30.09,SE,130,2.0,2.0,98,0.00,,---,0.04,VWS V14.01,2013-01-30 08:13:00,
2013-01-30 03:18:00,37.9,37.4,30.08,SE,130,2.0,3.0,98,0.00,,---,0.04,VWS V14.01,2013-01-30 08:18:00,
2013-01-30 03:23:00,37.9,37.4,30.08,SE,128,2.0,4.0,98,0.00,,---,0.04,VWS V14.01,2013-01-30 08:23:00,
2013-01-30 03:28:00,37.9,37.4,30.08,SE,130,2.0,5.0,98,0.00,,---,0.04,VWS V14.01,2013-01-30 08:28:00,
2013-01-30 03:33:00,37.9,37.4,30.07,ESE,123,0.0,2.0,98,0.00,,---,0.04,VWS V14.01,2013-01-30 08:33:00,
2013-01-30 03:38:00,37.8,37.3,30.07,ESE,123,1.0,2.0,98,0.00,,---,0.04,VWS V14.01,2013-01-30 08:38:00,
2013-01-30 03:43:00,37.9,37.4,30.07,ESE,123,3.0,3.0,98,0.00,,---,0.04,VWS V14.01,2013-01-30 08:43:00,
2013-01-30 03:48:00,37.9,37.4,30.06,ESE,123,5.0,5.0,98,0.00,,---,0.04,VWS V14.01,2013-01-30 08:48:00,
2013-01-30 03:53:00,37.9,37.4,30.06,ESE,123,2.0,4.0,98,0.00,,---,0.04,VWS V14.01,2013-01-30 08:53:00,
2013-01-30 03:58:00,37.8,37.3,30.06,SE,127,0.0,2.0,98,0.00,,---,0.04,VWS V14.01,2013-01-30 08:58:00,
2013-01-30 04:03:00,37.8,37.3,30.06,SE,127,0.0,2.0,98,0.00,,---,0.04,VWS V14.01,2013-01-30 09:03:00,
2013-01-30 04:08:00,37.8,37.3,30.06,SE,128,2.0,5.0,98,0.00,,---,0.04,VWS V14.01,2013-01-30 09:08:00,
2013-01-30 04:13:00,37.8,37.3,30.06,SE,128,2.0,4.0,98,0.00,,---,0.04,VWS V14.01,2013-01-30 09:13:00,
2013-01-30 04:18:00,37.8,37.3,30.04,SE,128,0.0,3.0,98,0.00,,---,0.04,VWS V14.01,2013-01-30 09:18:00,
2013-01-30 04:23:00,37.8,37.3,30.04,SE,128,1.0,3.0,98,0.00,,---,0.04,VWS V14.01,2013-01-30 09:23:00,
2013-01-30 04:28:00,37.8,37.3,30.04,SE,130,2.0,3.0,98,0.00,,---,0.04,VWS V14.01,2013-01-30 09:28:00,
2013-01-30 04:33:00,37.8,37.3,30.04,SE,130,1.0,3.0,98,0.00,,---,0.04,VWS V14.01,2013-01-30 09:33:00,
2013-01-30 04:38:00,37.8,37.3,30.04,SE,130,1.0,3.0,98,0.00,,---,0.04,VWS V14.01,2013-01-30 09:38:00,
2013-01-30 04:43:00,37.8,37.3,30.04,SE,130,0.0,3.0,98,0.00,,---,0.04,VWS V14.01,2013-01-30 09:43:00,
2013-01-30 04:48:00,37.8,37.3,30.03,SE,130,0.0,1.0,98,0.00,,---,0.04,VWS V14.01,2013-01-30 09:48:00,
2013-01-30 04:53:00,37.8,37.3,30.03,SE,130,1.0,3.0,98,0.00,,---,0.04,VWS V14.01,2013-01-30 09:53:00,
2013-01-30 04:58:00,37.8,37.3,30.03,SE,130,1.0,2.0,98,0.00,,---,0.04,VWS V14.01,2013-01-30 09:58:00,
2013-01-30 05:03:00,37.8,37.3,30.03,SE,130,1.0,2.0,98,0.00,,---,0.04,VWS V14.01,2013-01-30 10:03:00,
2013-01-30 05:08:00,37.8,37.3,30.03,SE,130,0.0,2.0,98,0.00,,---,0.04,VWS V14.01,2013-01-30 10:08:00,
2013-01-30 05:13:00,37.9,37.4,30.03,SE,130,0.0,2.0,98,0.00,,---,0.04,VWS V14.01,2013-01-30 10:13:00,
2013-01-30 05:18:00,37.9,37.4,30.03,SE,130,0.0,0.0,98,0.00,,---,0.04,VWS V14.01,2013-01-30 10:18:00,
2013-01-30 05:23:00,37.8,37.3,30.03,SE,130,1.0,2.0,98,0.00,,---,0.04,VWS V14.01,2013-01-30 10:23:00,
2013-01-30 05:28:00,37.8,37.3,30.03,SE,130,0.0,1.0,98,0.00,,---,0.04,VWS V14.01,2013-01-30 10:28:00,
2013-01-30 05:33:00,37.8,37.3,30.03,SE,130,0.0,2.0,98,0.00,,---,0.04,VWS V14.01,2013-01-30 10:33:00,
2013-01-30 05:38:00,37.9,37.4,30.03,SE,130,1.0,1.0,98,0.00,,---,0.04,VWS V14.01,2013-01-30 10:38:00,
2013-01-30 05:43:00,37.9,37.4,30.03,SE,130,0.0,0.0,98,0.00,,---,0.04,VWS V14.01,2013-01-30 10:43:00,
2013-01-30 05:48:00,38.0,37.5,30.02,SE,130,2.0,2.0,98,0.00,,---,0.04,VWS V14.01,2013-01-30 10:48:00,
2013-01-30 05:53:00,38.2,37.7,30.02,SE,130,2.0,3.0,98,0.00,,---,0.04,VWS V14.01,2013-01-30 10:53:00,
2013-01-30 05:58:00,38.5,38.0,30.02,SE,130,1.0,3.0,98,0.00,,---,0.04,VWS V14.01,2013-01-30 10:58:00,
2013-01-30 06:03:00,38.8,38.3,30.01,SE,130,5.0,5.0,98,0.00,,---,0.04,VWS V14.01,2013-01-30 11:03:00,
2013-01-30 06:08:00,38.8,38.3,30.01,SE,130,2.0,5.0,98,0.00,,---,0.04,VWS V14.01,2013-01-30 11:08:00,
2013-01-30 06:13:00,39.1,38.6,30.01,ESE,119,2.0,2.0,98,0.00,,---,0.04,VWS V14.01,2013-01-30 11:13:00,
2013-01-30 06:18:00,39.1,38.6,30.01,ESE,119,1.0,3.0,98,0.00,,---,0.04,VWS V14.01,2013-01-30 11:18:00,
2013-01-30 06:23:00,39.1,38.6,30.01,ESE,119,3.0,3.0,98,0.00,,---,0.04,VWS V14.01,2013-01-30 11:23:00,
2013-01-30 06:28:00,39.1,38.6,30.01,ESE,119,2.0,3.0,98,0.00,,---,0.04,VWS V14.01,2013-01-30 11:28:00,
2013-01-30 06:33:00,39.2,38.7,30.00,ESE,119,1.0,3.0,98,0.00,,---,0.04,VWS V14.01,2013-01-30 11:33:00,
2013-01-30 06:38:00,39.3,38.8,30.00,ESE,119,2.0,2.0,98,0.00,,---,0.04,VWS V14.01,2013-01-30 11:38:00,
2013-01-30 06:43:00,39.3,38.8,30.00,ESE,119,2.0,3.0,98,0.00,,---,0.04,VWS V14.01,2013-01-30 11:43:00,
2013-01-30 06:48:00,39.5,39.0,30.00,ESE,119,2.0,2.0,98,0.00,,---,0.04,VWS V14.01,2013-01-30 11:48:00,
2013-01-30 06:53:00,39.5,39.0,30.00,ESE,119,1.0,2.0,98,0.00,,---,0.04,VWS V14.01,2013-01-30 11:53:00,
2013-01-30 06:58:00,39.6,39.1,30.00,SE,131,3.0,3.0,98,0.00,,---,0.04,VWS V14.01,2013-01-30 11:58:00,
2013-01-30 07:03:00,39.8,39.5,30.00,ESE,102,2.0,5.0,99,0.00,,---,0.04,VWS V14.01,2013-01-30 12:03:00,
2013-01-30 07:08:00,39.8,39.3,30.00,South,191,2.0,3.0,98,0.00,,---,0.04,VWS V14.01,2013-01-30 12:08:00,
2013-01-30 07:13:00,39.8,39.3,30.00,South,191,1.0,2.0,98,0.00,,---,0.04,VWS V14.01,2013-01-30 12:13:00,
2013-01-30 07:18:00,39.9,39.4,29.99,South,169,0.0,3.0,98,0.00,,---,0.04,VWS V14.01,2013-01-30 12:18:00,
2013-01-30 07:23:00,40.1,39.8,29.99,South,171,0.0,3.0,99,0.00,,---,0.04,VWS V14.01,2013-01-30 12:23:00,
2013-01-30 07:28:00,40.1,39.6,29.99,South,171,2.0,4.0,98,0.00,,---,0.04,VWS V14.01,2013-01-30 12:28:00,
2013-01-30 07:33:00,40.2,39.9,29.98,South,171,1.0,1.0,99,0.00,,---,0.04,VWS V14.01,2013-01-30 12:33:00,
2013-01-30 07:38:00,40.3,40.0,29.98,South,171,2.0,3.0,99,0.00,,---,0.04,VWS V14.01,2013-01-30 12:38:00,
2013-01-30 07:43:00,40.5,40.2,29.98,South,171,2.0,2.0,99,0.00,,---,0.04,VWS V14.01,2013-01-30 12:43:00,
2013-01-30 07:48:00,40.6,40.3,29.98,South,171,0.0,2.0,99,0.00,,---,0.04,VWS V14.01,2013-01-30 12:48:00,
2013-01-30 07:53:00,40.9,40.6,29.98,South,171,1.0,2.0,99,0.00,,---,0.04,VWS V14.01,2013-01-30 12:53:00,
2013-01-30 07:58:00,41.1,40.8,29.98,ESE,117,1.0,7.0,99,0.00,,---,0.04,VWS V14.01,2013-01-30 12:58:00,
2013-01-30 08:03:00,41.3,41.0,29.95,SE,131,5.0,5.0,99,0.00,,---,0.04,VWS V14.01,2013-01-30 13:03:00,
2013-01-30 08:08:00,41.8,41.5,29.95,SE,131,6.0,6.0,99,0.00,,---,0.04,VWS V14.01,2013-01-30 13:08:00,
2013-01-30 08:13:00,42.2,41.9,29.95,ESE,119,3.0,5.0,99,0.00,,---,0.04,VWS V14.01,2013-01-30 13:13:00,
2013-01-30 08:18:00,42.5,42.2,29.95,SSE,158,2.0,2.0,99,0.00,,---,0.04,VWS V14.01,2013-01-30 13:18:00,
2013-01-30 08:23:00,42.8,42.5,29.95,SSE,157,2.0,2.0,99,0.00,,---,0.04,VWS V14.01,2013-01-30 13:23:00,
2013-01-30 08:28:00,43.1,42.8,29.95,SSE,157,2.0,2.0,99,0.00,,---,0.04,VWS V14.01,2013-01-30 13:28:00,
2013-01-30 08:33:00,43.3,43.0,29.95,SSE,155,0.0,3.0,99,0.00,,---,0.04,VWS V14.01,2013-01-30 13:33:00,
2013-01-30 08:38:00,43.8,43.5,29.95,SSW,205,1.0,2.0,99,0.00,,---,0.04,VWS V14.01,2013-01-30 13:38:00,
2013-01-30 08:43:00,44.1,43.8,29.95,SSW,203,1.0,5.0,99,0.00,,---,0.04,VWS V14.01,2013-01-30 13:43:00,
2013-01-30 08:48:00,44.6,44.3,29.94,SSE,152,2.0,2.0,99,0.00,,---,0.04,VWS V14.01,2013-01-30 13:48:00,
2013-01-30 08:53:00,45.1,44.8,29.94,South,188,0.0,5.0,99,0.00,,---,0.04,VWS V14.01,2013-01-30 13:53:00,
2013-01-30 08:58:00,45.5,45.2,29.94,SSE,162,2.0,8.0,99,0.00,,---,0.04,VWS V14.01,2013-01-30 13:58:00,
2013-01-30 09:03:00,47.4,47.1,29.93,South,182,2.0,7.0,99,0.00,,---,0.04,VWS V14.01,2013-01-30 14:03:00,
2013-01-30 09:08:00,48.8,48.5,29.93,SSW,203,3.0,6.0,99,0.00,,---,0.04,VWS V14.01,2013-01-30 14:08:00,
2013-01-30 09:13:00,49.2,49.2,29.93,South,181,1.0,6.0,100,0.00,,---,0.04,VWS V14.01,2013-01-30 14:13:00,
2013-01-30 09:18:00,49.8,49.8,29.92,SW,224,2.0,10.0,100,0.00,,---,0.04,VWS V14.01,2013-01-30 14:18:00,
2013-01-30 09:23:00,50.4,50.4,29.92,SSW,212,2.0,8.0,100,0.00,,---,0.04,VWS V14.01,2013-01-30 14:23:00,
2013-01-30 09:28:00,50.5,50.5,29.92,South,172,4.0,5.0,100,0.00,,---,0.04,VWS V14.01,2013-01-30 14:28:00,
2013-01-30 09:33:00,50.8,50.8,29.91,South,185,6.0,8.0,100,0.00,,---,0.04,VWS V14.01,2013-01-30 14:33:00,
2013-01-30 09:38:00,51.1,51.1,29.91,South,174,5.0,6.0,100,0.00,,---,0.04,VWS V14.01,2013-01-30 14:38:00,
2013-01-30 09:43:00,51.4,51.1,29.91,SSE,160,6.0,10.0,99,0.00,,---,0.04,VWS V14.01,2013-01-30 14:43:00,
2013-01-30 09:48:00,51.7,51.4,29.90,SSW,209,4.0,10.0,99,0.00,,---,0.04,VWS V14.01,2013-01-30 14:48:00,
2013-01-30 09:53:00,52.2,51.9,29.90,SSW,213,6.0,6.0,99,0.00,,---,0.04,VWS V14.01,2013-01-30 14:53:00,
2013-01-30 09:58:00,52.3,52.0,29.90,South,189,7.0,7.0,99,0.00,,---,0.04,VWS V14.01,2013-01-30 14:58:00,
2013-01-30 10:03:00,52.6,52.3,29.90,South,169,3.0,6.0,99,0.00,,---,0.04,VWS V14.01,2013-01-30 15:03:00,
2013-01-30 10:08:00,52.6,52.3,29.90,South,191,6.0,6.0,99,0.00,,---,0.04,VWS V14.01,2013-01-30 15:08:00,
2013-01-30 10:13:00,52.6,52.3,29.90,South,182,5.0,7.0,99,0.00,,---,0.04,VWS V14.01,2013-01-30 15:13:00,
2013-01-30 10:18:00,52.6,52.3,29.90,South,178,2.0,5.0,99,0.00,,---,0.04,VWS V14.01,2013-01-30 15:18:00,
2013-01-30 10:23:00,52.6,52.3,29.90,South,191,4.0,10.0,99,0.00,,---,0.04,VWS V14.01,2013-01-30 15:23:00,
2013-01-30 10:28:00,52.8,52.5,29.90,South,184,4.0,6.0,99,0.00,,---,0.04,VWS V14.01,2013-01-30 15:28:00,
2013-01-30 10:33:00,53.1,52.8,29.89,South,186,7.0,7.0,99,0.00,,---,0.04,VWS V14.01,2013-01-30 15:33:00,
2013-01-30 10:38:00,53.3,53.0,29.89,South,178,2.0,6.0,99,0.00,,---,0.04,VWS V14.01,2013-01-30 15:38:00,
2013-01-30 10:43:00,53.6,53.0,29.89,South,174,2.0,6.0,98,0.00,,---,0.04,VWS V14.01,2013-01-30 15:43:00,
2013-01-30 10:48:00,53.9,53.3,29.88,SSW,205,2.0,10.0,98,0.00,,---,0.04,VWS V14.01,2013-01-30 15:48:00,
2013-01-30 10:53:00,54.1,53.5,29.88,South,181,5.0,10.0,98,0.00,,---,0.04,VWS V14.01,2013-01-30 15:53:00,
2013-01-30 10:58:00,54.2,53.7,29.88,SSW,193,6.0,10.0,98,0.00,,---,0.04,VWS V14.01,2013-01-30 15:58:00,
2013-01-30 11:03:00,54.2,53.7,29.87,South,182,4.0,11.0,98,0.00,,---,0.04,VWS V14.01,2013-01-30 16:03:00,
2013-01-30 11:08:00,54.2,53.4,29.87,South,189,2.0,14.0,97,0.00,,---,0.04,VWS V14.01,2013-01-30 16:08:00,
2013-01-30 11:13:00,54.2,53.4,29.87,SSW,199,3.0,11.0,97,0.00,,---,0.04,VWS V14.01,2013-01-30 16:13:00,
2013-01-30 11:18:00,54.4,53.6,29.86,SSW,192,5.0,11.0,97,0.00,,---,0.04,VWS V14.01,2013-01-30 16:18:00,
2013-01-30 11:23:00,54.7,53.9,29.86,SSW,195,7.0,10.0,97,0.00,,---,0.04,VWS V14.01,2013-01-30 16:23:00,
2013-01-30 11:28:00,54.8,54.0,29.86,SSW,212,4.0,6.0,97,0.00,,---,0.04,VWS V14.01,2013-01-30 16:28:00,
2013-01-30 11:33:00,55.1,54.3,29.84,SSE,167,7.0,12.0,97,0.00,,---,0.04,VWS V14.01,2013-01-30 16:33:00,
2013-01-30 11:38:00,55.4,54.6,29.84,SW,215,7.0,18.0,97,0.00,,---,0.04,VWS V14.01,2013-01-30 16:38:00,
2013-01-30 11:43:00,55.9,54.8,29.84,SSW,196,8.0,12.0,96,0.00,,---,0.04,VWS V14.01,2013-01-30 16:43:00,
2013-01-30 11:48:00,56.0,54.9,29.82,SSW,192,11.0,14.0,96,0.00,,---,0.04,VWS V14.01,2013-01-30 16:48:00,
2013-01-30 11:53:00,56.2,55.1,29.82,South,189,8.0,17.0,96,0.00,,---,0.04,VWS V14.01,2013-01-30 16:53:00,
2013-01-30 11:58:00,56.2,55.1,29.82,South,175,6.0,11.0,96,0.00,,---,0.04,VWS V14.01,2013-01-30 16:58:00,
2013-01-30 12:03:00,56.3,54.9,29.81,SSW,205,16.0,16.0,95,0.00,,---,0.04,VWS V14.01,2013-01-30 17:03:00,
2013-01-30 12:08:00,56.6,55.2,29.81,SSE,151,7.0,13.0,95,0.00,,---,0.04,VWS V14.01,2013-01-30 17:08:00,
2013-01-30 12:13:00,56.6,55.2,29.81,SSE,148,2.0,8.0,95,0.00,,---,0.04,VWS V14.01,2013-01-30 17:13:00,
2013-01-30 12:18:00,56.6,54.6,29.79,SSW,192,12.0,14.0,93,0.00,,---,0.04,VWS V14.01,2013-01-30 17:18:00,
2013-01-30 12:23:00,56.6,54.6,29.79,SSW,196,4.0,13.0,93,0.00,,---,0.04,VWS V14.01,2013-01-30 17:23:00,
2013-01-30 12:28:00,56.7,54.7,29.79,South,189,6.0,10.0,93,0.00,,---,0.04,VWS V14.01,2013-01-30 17:28:00,
2013-01-30 12:33:00,56.7,54.4,29.78,SSE,165,3.0,13.0,92,0.00,,---,0.04,VWS V14.01,2013-01-30 17:33:00,
2013-01-30 12:38:00,56.9,54.6,29.78,East,80,4.0,10.0,92,0.00,,---,0.04,VWS V14.01,2013-01-30 17:38:00,
2013-01-30 12:43:00,56.9,54.6,29.78,South,184,8.0,8.0,92,0.00,,---,0.04,VWS V14.01,2013-01-30 17:43:00,
2013-01-30 12:48:00,57.0,54.7,29.76,SSW,206,9.0,9.0,92,0.00,,---,0.04,VWS V14.01,2013-01-30 17:48:00,
2013-01-30 12:53:00,57.2,54.6,29.76,SW,219,4.0,16.0,91,0.00,,---,0.04,VWS V14.01,2013-01-30 17:53:00,
2013-01-30 12:58:00,57.3,54.7,29.76,South,185,1.0,11.0,91,0.00,,---,0.04,VWS V14.01,2013-01-30 17:58:00,
2013-01-30 13:03:00,57.5,54.9,29.75,ENE,71,2.0,7.0,91,0.00,,---,0.04,VWS V14.01,2013-01-30 18:03:00,
2013-01-30 13:08:00,57.8,55.2,29.75,SW,215,6.0,18.0,91,0.00,,---,0.04,VWS V14.01,2013-01-30 18:08:00,
2013-01-30 13:13:00,58.0,55.1,29.75,SSW,202,7.0,16.0,90,0.00,,---,0.04,VWS V14.01,2013-01-30 18:13:00,
2013-01-30 13:18:00,58.0,55.1,29.75,South,178,8.0,9.0,90,0.00,,---,0.04,VWS V14.01,2013-01-30 18:18:00,
2013-01-30 13:23:00,58.0,55.1,29.75,SW,215,6.0,20.0,90,0.00,,---,0.04,VWS V14.01,2013-01-30 18:23:00,
2013-01-30 13:28:00,58.0,55.1,29.75,SSW,196,5.0,17.0,90,0.00,,---,0.04,VWS V14.01,2013-01-30 18:28:00,
2013-01-30 13:33:00,58.0,55.1,29.74,SW,220,8.0,18.0,90,0.00,,---,0.04,VWS V14.01,2013-01-30 18:33:00,
2013-01-30 13:38:00,58.0,55.1,29.74,SSW,196,10.0,20.0,90,0.00,,---,0.04,VWS V14.01,2013-01-30 18:38:00,
2013-01-30 13:43:00,58.1,55.2,29.74,South,182,5.0,13.0,90,0.00,,---,0.04,VWS V14.01,2013-01-30 18:43:00,
2013-01-30 13:48:00,58.1,55.2,29.73,SSW,213,10.0,12.0,90,0.00,,---,0.04,VWS V14.01,2013-01-30 18:48:00,
2013-01-30 13:53:00,58.1,55.2,29.73,SSW,198,12.0,16.0,90,0.00,,---,0.04,VWS V14.01,2013-01-30 18:53:00,
2013-01-30 13:58:00,58.1,55.2,29.73,SSW,202,5.0,13.0,90,0.00,,---,0.04,VWS V14.01,2013-01-30 18:58:00,
2013-01-30 14:03:00,58.1,55.2,29.74,SSW,196,14.0,17.0,90,0.00,,---,0.04,VWS V14.01,2013-01-30 19:03:00,
2013-01-30 14:08:00,58.1,55.2,29.74,SSW,195,8.0,16.0,90,0.00,,---,0.04,VWS V14.01,2013-01-30 19:08:00,
2013-01-30 14:13:00,58.0,55.1,29.74,SE,141,5.0,12.0,90,0.00,,---,0.04,VWS V14.01,2013-01-30 19:13:00,
2013-01-30 14:18:00,57.8,55.2,29.74,SSE,167,6.0,12.0,91,0.00,,---,0.04,VWS V14.01,2013-01-30 19:18:00,
2013-01-30 14:23:00,57.6,55.0,29.74,South,186,7.0,14.0,91,0.00,,---,0.04,VWS V14.01,2013-01-30 19:23:00,
2013-01-30 14:28:00,57.3,54.7,29.74,South,181,2.0,16.0,91,0.00,,---,0.04,VWS V14.01,2013-01-30 19:28:00,
2013-01-30 14:33:00,57.0,54.4,29.73,SSW,202,6.0,13.0,91,0.00,,---,0.04,VWS V14.01,2013-01-30 19:33:00,
2013-01-30 14:38:00,56.7,54.1,29.73,South,186,13.0,18.0,91,0.00,,---,0.04,VWS V14.01,2013-01-30 19:38:00,
2013-01-30 14:43:00,56.5,54.2,29.73,SSW,206,7.0,12.0,92,0.00,,---,0.04,VWS V14.01,2013-01-30 19:43:00,
2013-01-30 14:48:00,56.2,53.9,29.73,SSE,157,10.0,21.0,92,0.00,,---,0.04,VWS V14.01,2013-01-30 19:48:00,
2013-01-30 14:53:00,55.9,53.6,29.73,SW,219,11.0,13.0,92,0.00,,---,0.04,VWS V14.01,2013-01-30 19:53:00,
2013-01-30 14:58:00,55.6,53.3,29.73,South,174,18.0,18.0,92,0.00,,---,0.04,VWS V14.01,2013-01-30 19:58:00,
2013-01-30 15:03:00,55.4,53.1,29.73,South,179,8.0,8.0,92,0.00,,---,0.04,VWS V14.01,2013-01-30 20:03:00,
2013-01-30 15:08:00,55.3,53.3,29.73,South,176,5.0,18.0,93,0.00,,---,0.04,VWS V14.01,2013-01-30 20:08:00,
2013-01-30 15:13:00,55.4,53.7,29.73,SSW,210,5.0,12.0,94,0.00,,---,0.04,VWS V14.01,2013-01-30 20:13:00,
2013-01-30 15:18:00,55.6,53.9,29.74,SSW,195,4.0,12.0,94,0.00,,---,0.04,VWS V14.01,2013-01-30 20:18:00,
2013-01-30 15:23:00,55.9,54.5,29.74,SSW,210,5.0,11.0,95,0.00,,---,0.04,VWS V14.01,2013-01-30 20:23:00,
2013-01-30 15:28:00,56.0,54.6,29.74,South,184,13.0,14.0,95,0.00,,---,0.04,VWS V14.01,2013-01-30 20:28:00,
2013-01-30 15:33:00,56.5,55.1,29.72,SSW,195,6.0,17.0,95,0.00,,---,0.04,VWS V14.01,2013-01-30 20:33:00,
2013-01-30 15:38:00,56.6,55.2,29.72,SSW,195,5.0,17.0,95,0.00,,---,0.04,VWS V14.01,2013-01-30 20:38:00,
2013-01-30 15:43:00,56.9,55.5,29.72,SSE,164,4.0,10.0,95,0.00,,---,0.04,VWS V14.01,2013-01-30 20:43:00,
2013-01-30 15:48:00,56.9,55.5,29.71,South,182,3.0,12.0,95,0.00,,---,0.04,VWS V14.01,2013-01-30 20:48:00,
2013-01-30 15:53:00,56.9,55.5,29.71,SSE,148,3.0,11.0,95,0.00,,---,0.04,VWS V14.01,2013-01-30 20:53:00,
2013-01-30 15:58:00,57.0,55.6,29.71,South,189,8.0,12.0,95,0.00,,---,0.04,VWS V14.01,2013-01-30 20:58:00,
2013-01-30 16:03:00,57.0,55.6,29.70,WSW,243,6.0,11.0,95,0.00,,---,0.04,VWS V14.01,2013-01-30 21:03:00,
2013-01-30 16:08:00,57.0,55.6,29.70,South,186,9.0,12.0,95,0.00,,---,0.04,VWS V14.01,2013-01-30 21:08:00,
2013-01-30 16:13:00,57.0,55.6,29.70,SW,230,14.0,14.0,95,0.00,,---,0.04,VWS V14.01,2013-01-30 21:13:00,
2013-01-30 16:18:00,57.0,55.6,29.70,South,176,4.0,11.0,95,0.00,,---,0.04,VWS V14.01,2013-01-30 21:18:00,
2013-01-30 16:23:00,57.0,55.6,29.70,SSW,205,10.0,12.0,95,0.00,,---,0.04,VWS V14.01,2013-01-30 21:23:00,
2013-01-30 16:28:00,57.0,55.6,29.70,NNW,342,7.0,10.0,95,0.00,,---,0.04,VWS V14.01,2013-01-30 21:28:00,
2013-01-30 16:33:00,57.0,55.6,29.70,South,182,6.0,7.0,95,0.00,,---,0.04,VWS V14.01,2013-01-30 21:33:00,
2013-01-30 16:38:00,57.0,55.6,29.70,SW,224,5.0,11.0,95,0.00,,---,0.04,VWS V14.01,2013-01-30 21:38:00,
2013-01-30 16:43:00,57.0,55.6,29.70,SSW,209,5.0,12.0,95,0.00,,---,0.04,VWS V14.01,2013-01-30 21:43:00,
2013-01-30 16:48:00,57.0,55.6,29.70,SW,232,8.0,8.0,95,0.00,,---,0.04,VWS V14.01,2013-01-30 21:48:00,
2013-01-30 16:53:00,57.0,55.6,29.70,SW,230,11.0,13.0,95,0.00,,---,0.04,VWS V14.01,2013-01-30 21:53:00,
2013-01-30 16:58:00,56.9,55.5,29.70,South,179,5.0,10.0,95,0.00,,---,0.04,VWS V14.01,2013-01-30 21:58:00,
2013-01-30 17:03:00,56.9,55.5,29.70,South,188,11.0,11.0,95,0.00,,---,0.04,VWS V14.01,2013-01-30 22:03:00,
2013-01-30 17:08:00,56.7,55.3,29.70,SSE,161,10.0,17.0,95,0.00,,---,0.04,VWS V14.01,2013-01-30 22:08:00,
2013-01-30 17:13:00,56.9,55.5,29.70,South,188,10.0,11.0,95,0.00,,---,0.04,VWS V14.01,2013-01-30 22:13:00,
2013-01-30 17:18:00,57.0,55.6,29.70,South,181,13.0,16.0,95,0.00,,---,0.04,VWS V14.01,2013-01-30 22:18:00,
2013-01-30 17:23:00,57.2,55.8,29.70,SSW,195,12.0,20.0,95,0.00,,---,0.04,VWS V14.01,2013-01-30 22:23:00,
2013-01-30 17:28:00,57.3,55.9,29.70,South,178,17.0,17.0,95,0.00,,---,0.04,VWS V14.01,2013-01-30 22:28:00,
2013-01-30 17:33:00,57.5,56.1,29.70,SSW,195,11.0,13.0,95,0.00,,---,0.04,VWS V14.01,2013-01-30 22:33:00,
2013-01-30 17:38:00,57.5,56.1,29.70,SSW,202,12.0,13.0,95,0.00,,---,0.04,VWS V14.01,2013-01-30 22:38:00,
2013-01-30 17:43:00,57.5,56.1,29.70,SSW,205,10.0,17.0,95,0.00,,---,0.04,VWS V14.01,2013-01-30 22:43:00,
2013-01-30 17:48:00,57.6,56.2,29.69,North,0,10.0,12.0,95,0.00,,---,0.04,VWS V14.01,2013-01-30 22:48:00,
2013-01-30 17:53:00,57.6,56.2,29.69,SSW,202,10.0,14.0,95,0.00,,---,0.04,VWS V14.01,2013-01-30 22:53:00,
2013-01-30 17:58:00,57.8,56.4,29.69,SW,223,4.0,14.0,95,0.00,,---,0.04,VWS V14.01,2013-01-30 22:58:00,
2013-01-30 18:03:00,57.8,56.4,29.69,WSW,244,3.0,12.0,95,0.00,,---,0.04,VWS V14.01,2013-01-30 23:03:00,
2013-01-30 18:08:00,57.8,56.1,29.69,SSW,199,7.0,11.0,94,0.00,,---,0.04,VWS V14.01,2013-01-30 23:08:00,
2013-01-30 18:13:00,58.0,56.3,29.69,SW,222,6.0,13.0,94,0.00,,---,0.04,VWS V14.01,2013-01-30 23:13:00,
2013-01-30 18:18:00,58.0,56.3,29.68,SW,220,8.0,11.0,94,0.00,,---,0.04,VWS V14.01,2013-01-30 23:18:00,
2013-01-30 18:23:00,57.8,56.1,29.68,SSW,193,14.0,14.0,94,0.00,,---,0.04,VWS V14.01,2013-01-30 23:23:00,
2013-01-30 18:28:00,57.8,56.1,29.68,South,174,6.0,20.0,94,0.00,,---,0.04,VWS V14.01,2013-01-30 23:28:00,
2013-01-30 18:33:00,57.6,55.9,29.67,SW,222,4.0,13.0,94,0.00,,---,0.04,VWS V14.01,2013-01-30 23:33:00,
2013-01-30 18:38:00,57.6,55.6,29.67,South,182,5.0,19.0,93,0.00,,---,0.04,VWS V14.01,2013-01-30 23:38:00,
2013-01-30 18:43:00,57.5,55.5,29.67,South,176,5.0,12.0,93,0.00,,---,0.04,VWS V14.01,2013-01-30 23:43:00,
2013-01-30 18:48:00,57.5,55.8,29.67,SW,220,6.0,13.0,94,0.00,,---,0.04,VWS V14.01,2013-01-30 23:48:00,
2013-01-30 18:53:00,57.5,55.8,29.67,SW,217,13.0,13.0,94,0.00,,---,0.04,VWS V14.01,2013-01-30 23:53:00,
2013-01-30 18:58:00,57.5,55.8,29.67,South,171,6.0,13.0,94,0.00,,---,0.04,VWS V14.01,2013-01-30 23:58:00,
2013-01-30 19:03:00,57.3,55.6,29.66,SW,220,9.0,19.0,94,0.00,,---,0.04,VWS V14.01,2013-01-31 00:03:00,
2013-01-30 19:08:00,57.2,55.5,29.66,SW,232,4.0,13.0,94,0.00,,---,0.04,VWS V14.01,2013-01-31 00:08:00,
2013-01-30 19:13:00,57.2,55.5,29.66,SSW,213,8.0,18.0,94,0.00,,---,0.04,VWS V14.01,2013-01-31 00:13:00,
2013-01-30 19:18:00,57.3,55.6,29.66,SSW,205,7.0,16.0,94,0.00,,---,0.04,VWS V14.01,2013-01-31 00:18:00,
2013-01-30 19:23:00,57.2,55.5,29.66,SSW,200,3.0,14.0,94,0.00,,---,0.04,VWS V14.01,2013-01-31 00:23:00,
2013-01-30 19:28:00,57.0,55.3,29.66,West,275,6.0,14.0,94,0.00,,---,0.04,VWS V14.01,2013-01-31 00:28:00,
2013-01-30 19:33:00,57.0,55.3,29.65,SW,233,6.0,11.0,94,0.00,,---,0.04,VWS V14.01,2013-01-31 00:33:00,
2013-01-30 19:38:00,57.0,55.6,29.65,SSW,206,5.0,14.0,95,0.00,,---,0.04,VWS V14.01,2013-01-31 00:38:00,
2013-01-30 19:43:00,57.0,55.6,29.65,South,181,12.0,14.0,95,0.00,,---,0.04,VWS V14.01,2013-01-31 00:43:00,
2013-01-30 19:48:00,57.2,55.8,29.65,North,1,2.0,17.0,95,0.00,,---,0.04,VWS V14.01,2013-01-31 00:48:00,
2013-01-30 19:53:00,57.2,55.8,29.65,South,189,3.0,11.0,95,0.00,,---,0.04,VWS V14.01,2013-01-31 00:53:00,
2013-01-30 19:58:00,57.2,55.8,29.65,South,184,4.0,13.0,95,0.00,,---,0.04,VWS V14.01,2013-01-31 00:58:00,
2013-01-30 20:03:00,57.2,55.8,29.64,SW,226,13.0,19.0,95,0.00,,---,0.04,VWS V14.01,2013-01-31 01:03:00,
2013-01-30 20:08:00,57.2,55.8,29.64,South,179,7.0,16.0,95,0.00,,---,0.04,VWS V14.01,2013-01-31 01:08:00,
2013-01-30 20:13:00,57.0,55.6,29.64,South,191,8.0,19.0,95,0.00,,---,0.04,VWS V14.01,2013-01-31 01:13:00,
2013-01-30 20:18:00,57.2,55.8,29.62,SSE,160,11.0,11.0,95,0.00,,---,0.04,VWS V14.01,2013-01-31 01:18:00,
2013-01-30 20:23:00,57.2,55.8,29.62,South,181,10.0,11.0,95,0.00,,---,0.04,VWS V14.01,2013-01-31 01:23:00,
2013-01-30 20:28:00,57.3,55.9,29.62,SW,217,7.0,17.0,95,0.00,,---,0.04,VWS V14.01,2013-01-31 01:28:00,
2013-01-30 20:33:00,57.3,55.6,29.62,SW,222,11.0,17.0,94,0.00,,---,0.04,VWS V14.01,2013-01-31 01:33:00,
2013-01-30 20:38:00,57.3,55.6,29.62,South,181,14.0,20.0,94,0.00,,---,0.04,VWS V14.01,2013-01-31 01:38:00,
2013-01-30 20:43:00,57.5,55.8,29.62,SSW,205,13.0,13.0,94,0.00,,---,0.04,VWS V14.01,2013-01-31 01:43:00,
2013-01-30 20:48:00,57.6,55.9,29.61,SSW,200,25.0,25.0,94,0.00,,---,0.04,VWS V14.01,2013-01-31 01:48:00,
2013-01-30 20:53:00,57.6,55.6,29.61,SSW,213,7.0,19.0,93,0.00,,---,0.04,VWS V14.01,2013-01-31 01:53:00,
2013-01-30 20:58:00,57.8,55.8,29.61,South,188,7.0,13.0,93,0.00,,---,0.04,VWS V14.01,2013-01-31 01:58:00,
2013-01-30 21:03:00,57.8,55.8,29.60,SSW,206,8.0,13.0,93,0.00,,---,0.04,VWS V14.01,2013-01-31 02:03:00,
2013-01-30 21:08:00,58.1,56.1,29.60,South,186,5.0,18.0,93,0.00,,---,0.04,VWS V14.01,2013-01-31 02:08:00,
2013-01-30 21:13:00,58.4,56.1,29.60,SSW,213,8.0,16.0,92,0.00,,---,0.04,VWS V14.01,2013-01-31 02:13:00,
2013-01-30 21:18:00,58.6,56.3,29.60,NNW,332,6.0,10.0,92,0.00,,---,0.04,VWS V14.01,2013-01-31 02:18:00,
2013-01-30 21:23:00,58.6,56.3,29.60,SSW,199,10.0,17.0,92,0.00,,---,0.04,VWS V14.01,2013-01-31 02:23:00,
2013-01-30 21:28:00,58.6,56.3,29.60,SSW,200,10.0,22.0,92,0.00,,---,0.04,VWS V14.01,2013-01-31 02:28:00,
2013-01-30 21:33:00,58.6,56.0,29.60,SSW,198,6.0,13.0,91,0.00,,---,0.04,VWS V14.01,2013-01-31 02:33:00,
2013-01-30 21:38:00,58.4,55.8,29.60,South,191,7.0,16.0,91,0.00,,---,0.04,VWS V14.01,2013-01-31 02:38:00,
2013-01-30 21:43:00,58.4,55.8,29.60,SSW,203,10.0,18.0,91,0.00,,---,0.04,VWS V14.01,2013-01-31 02:43:00,
2013-01-30 21:48:00,58.3,55.7,29.59,West,281,10.0,18.0,91,0.00,,---,0.04,VWS V14.01,2013-01-31 02:48:00,
2013-01-30 21:53:00,58.3,55.7,29.59,SW,220,17.0,25.0,91,0.00,,---,0.04,VWS V14.01,2013-01-31 02:53:00,
2013-01-30 21:58:00,58.3,55.7,29.59,South,178,10.0,12.0,91,0.00,,---,0.04,VWS V14.01,2013-01-31 02:58:00,
2013-01-30 22:03:00,58.0,55.4,29.58,SSW,205,11.0,12.0,91,0.00,,---,0.04,VWS V14.01,2013-01-31 03:03:00,
2013-01-30 22:08:00,57.6,55.0,29.58,SSW,208,10.0,13.0,91,0.00,,---,0.04,VWS V14.01,2013-01-31 03:08:00,
2013-01-30 22:13:00,57.5,55.2,29.58,South,188,6.0,12.0,92,0.00,,---,0.04,VWS V14.01,2013-01-31 03:13:00,
2013-01-30 22:18:00,57.3,55.0,29.58,SSW,212,11.0,19.0,92,0.00,,---,0.04,VWS V14.01,2013-01-31 03:18:00,
2013-01-30 22:22:00,57.2,54.9,29.58,South,188,6.0,10.0,92,0.00,,---,0.04,VWS V14.01,2013-01-31 03:22:00,
2013-01-30 22:27:00,57.0,54.7,29.58,South,178,6.0,8.0,92,0.00,,---,0.04,VWS V14.01,2013-01-31 03:27:00,
2013-01-30 22:33:00,57.0,54.7,29.58,SW,215,7.0,17.0,92,0.00,,---,0.04,VWS V14.01,2013-01-31 03:33:00,
2013-01-30 22:38:00,57.0,55.0,29.58,SSE,151,2.0,16.0,93,0.00,,---,0.04,VWS V14.01,2013-01-31 03:38:00,
2013-01-30 22:43:00,56.9,54.9,29.58,SSW,199,22.0,22.0,93,0.00,,---,0.04,VWS V14.01,2013-01-31 03:43:00,
2013-01-30 22:47:00,56.9,54.9,29.57,SSW,193,11.0,11.0,93,0.00,,---,0.04,VWS V14.01,2013-01-31 03:47:00,
2013-01-30 22:52:00,56.7,54.7,29.57,SW,215,8.0,12.0,93,0.00,,---,0.04,VWS V14.01,2013-01-31 03:52:00,
2013-01-30 22:57:00,56.7,54.7,29.57,SSW,205,8.0,16.0,93,0.00,,---,0.04,VWS V14.01,2013-01-31 03:57:00,
2013-01-30 23:02:00,56.7,54.7,29.56,South,185,8.0,20.0,93,0.00,,---,0.04,VWS V14.01,2013-01-31 04:02:00,
2013-01-30 23:07:00,56.9,55.2,29.56,SSW,195,1.0,7.0,94,0.00,,---,0.04,VWS V14.01,2013-01-31 04:07:00,
2013-01-30 23:12:00,56.7,55.0,29.56,SW,216,7.0,15.0,94,0.00,,---,0.04,VWS V14.01,2013-01-31 04:12:00,
2013-01-30 23:17:00,56.7,55.0,29.56,ESE,116,5.0,8.0,94,0.00,,---,0.04,VWS V14.01,2013-01-31 04:17:00,
2013-01-30 23:22:00,56.7,55.0,29.56,South,179,11.0,14.0,94,0.00,,---,0.04,VWS V14.01,2013-01-31 04:22:00,
2013-01-30 23:27:00,56.9,55.2,29.56,SSE,161,5.0,7.0,94,0.00,,---,0.04,VWS V14.01,2013-01-31 04:27:00,
2013-01-30 23:32:00,56.9,55.5,29.54,SSW,193,6.0,16.0,95,0.00,,---,0.04,VWS V14.01,2013-01-31 04:32:00,
2013-01-30 23:37:00,57.0,55.6,29.54,South,184,12.0,13.0,95,0.00,,---,0.04,VWS V14.01,2013-01-31 04:37:00,
2013-01-30 23:42:00,57.2,55.8,29.54,South,176,2.0,14.0,95,0.00,,---,0.04,VWS V14.01,2013-01-31 04:42:00,
2013-01-30 23:47:00,57.3,55.9,29.54,South,189,9.0,14.0,95,0.00,,---,0.04,VWS V14.01,2013-01-31 04:47:00,
2013-01-30 23:52:00,57.5,56.1,29.54,SSW,208,6.0,19.0,95,0.00,,---,0.04,VWS V14.01,2013-01-31 04:52:00,
2013-01-30 23:57:00,57.5,56.1,29.54,South,191,5.0,12.0,95,0.00,,---,0.04,VWS V14.01,2013-01-31 04:57:00,